Home   Weather   Resolute Bay   Past weeks

Flag for Canada Past Weather in Resolute Bay, Nunavut, Canada — Yesterday and Last 2 Weeks

Now
39 °F

Low clouds.


Feels Like: 28 °F
Forecast: 34 / 37 °F
Wind: 25 mph from East

Location: Resolute

Current Time: Jul 23, 2017 at 5:40:30 am

Latest Report: Jul 23, 2017 at 5:00 am


Visibility: 15 mi

Pressure: 29.54 "Hg

Humidity: 87%

Dew Point: 36 °F

Location of Resolute BayLocation

Past Weather in Resolute Bay — Graph

°F

Resolute Bay Temperature Yesterday

Maximum temperature yesterday: 43 °F (at 6:00 am)
Minimum temperature yesterday: 37 °F (at 10:00 am)
Average temperature yesterday: 40 °F

High & Low Weather Summary for the Past Weeks

 TemperatureHumidityPressure
High52 °F (Jul 18, 3:00 pm)100% (Jul 8, 7:49 am)29.91 "Hg (Jul 8, 7:49 am)
Low30 °F (Jul 15, 3:00 am)54% (Jul 16, 3:00 pm)29.05 "Hg (Jul 15, 3:00 pm)
Average36 °F89%29.59 "Hg
* Reported Jul 8 3:00 am — Jul 23 3:00 am, Resolute Bay. Weather by CustomWeather, © 2017

Note: Actual official high and low records may vary slightly from our data, if they occured in-between our weather recording intervals... More about our weather records

Advertising

Resolute Bay Weather History for the Previous 24 Hours

Scroll right to see more
 ConditionsComfort  
Time TempWeatherWind HumidityBarometerVisibility
3:00 am
Sun, Jul 23
39 °FMostly cloudy.22 mph87%29.56 "Hg15 mi
2:00 am39 °FLow clouds.17 mph87%29.58 "Hg15 mi
1:00 am39 °FMore clouds than sun.23 mph93%29.57 "Hg15 mi
12:55 am39 °FMore clouds than sun.22 mph93%29.58 "Hg15 mi
12:00 am41 °FMore clouds than sun.20 mph93%29.59 "Hg15 mi
11:00 pm
Sat, Jul 22
41 °FMostly cloudy.16 mph93%29.58 "Hg10 mi
10:41 pm43 °FLow clouds.18 mph87%29.58 "Hg15 mi
9:53 pm39 °FMostly cloudy.3 mph87%29.58 "Hg15 mi
9:00 pm37 °FCloudy.2 mph93%29.59 "Hg15 mi
8:26 pm37 °FMore clouds than sun.3 mph87%29.59 "Hg15 mi
8:00 pm37 °FLight rain. More clouds than sun.5 mph87%29.59 "Hg15 mi
7:00 pm39 °FLight rain. Mostly cloudy.9 mph87%29.56 "Hg15 mi
6:00 pm39 °FOvercast.9 mph81%29.58 "Hg15 mi
5:00 pm39 °FOvercast.No wind81%29.56 "Hg15 mi
4:35 pm37 °FLow clouds.7 mph87%29.56 "Hg15 mi
4:00 pm37 °FOvercast.8 mph87%29.54 "Hg15 mi
3:00 pm41 °FOvercast.10 mph81%29.53 "Hg15 mi
2:00 pm41 °FOvercast.12 mph81%29.52 "Hg15 mi
1:00 pm39 °FOvercast.13 mph87%29.52 "Hg15 mi
12:00 pm39 °FOvercast.14 mph87%29.51 "Hg15 mi
11:00 am39 °FOvercast.13 mph93%29.50 "Hg15 mi
10:00 am37 °FOvercast.16 mph93%29.50 "Hg15 mi
9:44 am39 °FLight rain. Overcast.13 mph87%29.50 "Hg15 mi
9:00 am39 °FPartly sunny.20 mph87%29.49 "Hg15 mi
8:43 am39 °FCloudy.21 mph87%29.49 "Hg15 mi
8:00 am41 °FLight rain. Broken clouds.20 mph81%29.49 "Hg15 mi
7:00 am41 °FMostly cloudy.15 mph87%29.50 "Hg15 mi
6:00 am43 °FOvercast.20 mph81%29.49 "Hg15 mi
5:29 am41 °FOvercast.21 mph87%29.48 "Hg15 mi
5:00 am41 °FLight rain. Mostly cloudy.23 mph81%29.49 "Hg15 mi
Weather by CustomWeather, © 2017

See weather overviewHow to use our weather pages